QPF
0.00 0.00 0.00 0.00 0.00 0.00 0.01 0.05 0.07 0.06 0.07 0.07 0.09 0.09 0.08 0.08 0.06 0.04 0.04 0.04 0.03 0.03 0.05 0.06 0.08 0.05 0.05 0.05 0.06 0.09 0.09 0.07 0.05 0.08 0.09 0.06 0.05 0.03 0.03 0.02 0.01 0.00 0.00
0.00 0.00 0.00 0.00 0.00 0.00 0.02 0.04 0.04 0.05 0.07 0.08 0.09 0.10 0.11 0.12 0.10 0.07 0.06 0.04 0.04 0.04 0.04 0.04 0.05 0.05 0.07 0.07 0.08 0.10 0.09 0.06 0.06 0.07 0.13 0.15 0.13 0.07 0.02 0.02 0.01 0.01 0.02
0.00 0.00 0.00 0.00 0.00 0.01 0.02 0.03 0.05 0.04 0.05 0.07 0.08 0.09 0.12 0.15 0.15 0.12 0.11 0.08 0.06 0.05 0.06 0.06 0.05 0.08 0.07 0.09 0.09 0.09 0.10 0.09 0.07 0.05 0.10 0.16 0.20 0.14 0.05 0.02 0.02 0.03 0.05
0.00 0.00 0.00 0.00 0.01 0.01 0.02 0.03 0.04 0.04 0.04 0.06 0.08 0.09 0.09 0.12 0.15 0.14 0.13 0.11 0.09 0.08 0.08 0.07 0.07 0.08 0.07 0.11 0.08 0.08 0.11 0.10 0.08 0.08 0.08 0.08 0.13 0.14 0.13 0.12 0.08 0.05 0.04
0.00 0.00 0.00 0.00 0.01 0.01 0.02 0.04 0.05 0.05 0.04 0.05 0.08 0.11 0.10 0.13 0.15 0.15 0.15 0.13 0.11 0.08 0.08 0.08 0.08 0.09 0.09 0.10 0.09 0.11 0.09 0.10 0.10 0.10 0.10 0.09 0.08 0.07 0.10 0.13 0.11 0.09 0.07
0.00 0.00 0.00 0.00 0.00 0.00 0.02 0.05 0.05 0.05 0.05 0.04 0.07 0.11 0.10 0.14 0.17 0.17 0.14 0.12 0.10 0.09 0.08 0.06 0.07 0.09 0.11 0.11 0.10 0.09 0.07 0.09 0.10 0.09 0.08 0.10 0.10 0.07 0.07 0.08 0.09 0.08 0.06
0.00 0.00 0.00 0.00 0.00 0.00 0.01 0.03 0.05 0.07 0.06 0.05 0.06 0.09 0.09 0.12 0.13 0.13 0.12 0.11 0.10 0.10 0.08 0.06 0.07 0.10 0.12 0.11 0.10 0.10 0.09 0.10 0.11 0.09 0.07 0.07 0.06 0.06 0.06 0.08 0.08 0.07 0.04
0.00 0.00 0.00 0.00 0.00 0.00 0.00 0.01 0.02 0.04 0.03 0.04 0.05 0.06 0.07 0.09 0.10 0.12 0.12 0.14 0.12 0.09 0.08 0.08 0.06 0.08 0.09 0.10 0.12 0.10 0.10 0.12 0.12 0.10 0.10 0.08 0.06 0.06 0.06 0.07 0.09 0.11 0.09
0.00 0.00 0.00 0.00 0.00 0.00 0.00 0.00 0.01 0.01 0.02 0.02 0.03 0.05 0.06 0.07 0.09 0.10 0.11 0.12 0.13 0.10 0.07 0.07 0.06 0.06 0.07 0.09 0.11 0.11 0.11 0.12 0.11 0.10 0.11 0.10 0.07 0.08 0.08 0.08 0.11 0.15 0.14
0.00 0.00 0.00 0.00 0.00 0.00 0.01 0.00 0.01 0.01 0.02 0.03 0.04 0.06 0.07 0.07 0.08 0.08 0.10 0.12 0.12 0.12 0.11 0.10 0.07 0.08 0.09 0.10 0.12 0.11 0.12 0.13 0.11 0.10 0.11 0.11 0.09 0.09 0.10 0.10 0.11 0.13 0.14
0.00 0.00 0.00 0.00 0.00 0.00 0.00 0.00 0.00 0.02 0.03 0.03 0.04 0.04 0.06 0.06 0.05 0.06 0.07 0.08 0.09 0.09 0.11 0.11 0.09 0.09 0.09 0.10 0.11 0.10 0.12 0.13 0.13 0.11 0.10 0.10 0.10 0.10 0.09 0.10 0.11 0.12 0.13
0.01 0.00 0.00 0.00 0.00 0.00 0.01 0.01 0.02 0.02 0.03 0.04 0.03 0.04 0.05 0.05 0.04 0.04 0.06 0.06 0.07 0.06 0.07 0.09 0.08 0.06 0.06 0.09 0.11 0.10 0.11 0.13 0.14 0.12 0.10 0.08 0.08 0.10 0.09 0.11 0.12 0.11 0.13
0.00 0.00 0.00 0.00 0.00 0.00 0.00 0.01 0.01 0.01 0.01 0.03 0.03 0.04 0.04 0.05 0.05 0.05 0.05 0.05 0.05 0.07 0.09 0.11 0.08 0.07 0.07 0.09 0.11 0.12 0.12 0.13 0.15 0.14 0.12 0.09 0.09 0.09 0.09 0.09 0.11 0.10 0.09
0.00 0.02 0.01 0.00 0.00 0.00 0.00 0.00 0.00 0.00 0.01 0.01 0.02 0.04 0.04 0.03 0.04 0.04 0.04 0.04 0.05 0.06 0.09 0.09 0.09 0.09 0.09 0.10 0.10 0.11 0.12 0.13 0.14 0.13 0.12 0.10 0.09 0.08 0.09 0.09 0.09 0.09 0.11
0.00 0.01 0.01 0.00 0.00 0.00 0.00 0.00 0.00 0.01 0.01 0.02 0.03 0.04 0.03 0.03 0.02 0.03 0.05 0.05 0.05 0.05 0.07 0.09 0.10 0.09 0.07 0.07 0.09 0.12 0.15 0.18 0.19 0.17 0.14 0.12 0.09 0.07 0.06 0.05 0.07 0.10 0.12
0.00 0.01 0.01 0.01 0.00 0.00 0.00 0.00 0.00 0.00 0.01 0.02 0.03 0.05 0.05 0.04 0.03 0.03 0.04 0.04 0.04 0.05 0.06 0.06 0.06 0.06 0.05 0.07 0.06 0.08 0.13 0.15 0.15 0.15 0.13 0.11 0.09 0.08 0.08 0.09 0.10 0.11 0.12
0.01 0.01 0.00 0.01 0.03 0.02 0.01 0.01 0.01 0.01 0.01 0.01 0.02 0.04 0.06 0.05 0.03 0.03 0.04 0.04 0.04 0.05 0.06 0.06 0.06 0.05 0.06 0.07 0.05 0.05 0.05 0.06 0.07 0.07 0.08 0.09 0.09 0.12 0.12 0.13 0.13 0.11 0.09
0.00 0.01 0.01 0.01 0.01 0.01 0.02 0.02 0.02 0.01 0.02 0.03 0.04 0.05 0.04 0.03 0.04 0.04 0.04 0.05 0.06 0.07 0.07 0.06 0.06 0.06 0.07 0.07 0.04 0.04 0.06 0.07 0.06 0.06 0.06 0.06 0.09 0.10 0.11 0.08 0.06 0.05 0.04
0.00 0.00 0.01 0.01 0.01 0.01 0.01 0.01 0.02 0.02 0.02 0.03 0.05 0.07 0.06 0.05 0.04 0.04 0.05 0.05 0.05 0.07 0.08 0.08 0.07 0.07 0.06 0.05 0.03 0.02 0.03 0.03 0.03 0.03 0.04 0.05 0.04 0.06 0.07 0.06 0.05 0.04 0.03
0.00 0.00 0.00 0.01 0.01 0.01 0.01 0.01 0.03 0.03 0.03 0.03 0.04 0.06 0.06 0.06 0.06 0.06 0.05 0.05 0.04 0.05 0.06 0.06 0.05 0.04 0.04 0.04 0.02 0.02 0.01 0.02 0.02 0.02 0.02 0.02 0.03 0.04 0.05 0.04 0.04 0.03 0.03
0.01 0.01 0.02 0.02 0.02 0.02 0.02 0.02 0.03 0.04 0.04 0.03 0.03 0.04 0.04 0.05 0.05 0.04 0.04 0.04 0.03 0.03 0.04 0.04 0.04 0.03 0.03 0.04 0.03 0.02 0.02 0.02 0.02 0.02 0.02 0.03 0.02 0.03 0.04 0.03 0.03 0.04 0.03
0.01 0.02 0.02 0.02 0.03 0.04 0.03 0.03 0.03 0.03 0.03 0.03 0.02 0.03 0.04 0.04 0.04 0.03 0.02 0.02 0.02 0.03 0.03 0.03 0.03 0.03 0.03 0.03 0.02 0.02 0.02 0.02 0.02 0.02 0.03 0.03 0.04 0.04 0.04 0.03 0.04 0.04 0.04
0.01 0.01 0.02 0.02 0.03 0.03 0.03 0.03 0.03 0.03 0.02 0.01 0.01 0.02 0.03 0.03 0.04 0.04 0.04 0.03 0.03 0.03 0.03 0.03 0.03 0.03 0.03 0.03 0.02 0.02 0.02 0.02 0.01 0.01 0.02 0.03 0.03 0.04 0.03 0.03 0.04 0.04 0.03
0.01 0.02 0.02 0.02 0.02 0.02 0.01 0.02 0.02 0.02 0.01 0.01 0.02 0.03 0.04 0.04 0.04 0.04 0.04 0.04 0.05 0.04 0.03 0.03 0.03 0.03 0.03 0.02 0.02 0.02 0.01 0.01 0.01 0.02 0.02 0.02 0.03 0.03 0.03 0.03 0.03 0.03 0.03
0.02 0.02 0.02 0.02 0.02 0.01 0.01 0.01 0.01 0.02 0.02 0.02 0.03 0.04 0.03 0.02 0.03 0.05 0.05 0.05 0.06 0.05 0.04 0.03 0.03 0.03 0.03 0.02 0.02 0.02 0.01 0.01 0.01 0.01 0.01 0.02 0.03 0.03 0.03 0.04 0.04 0.04 0.04
0.02 0.03 0.03 0.03 0.02 0.02 0.01 0.01 0.02 0.02 0.02 0.02 0.04 0.03 0.02 0.01 0.01 0.02 0.03 0.03 0.03 0.04 0.04 0.03 0.03 0.02 0.03 0.03 0.02 0.02 0.01 0.01 0.01 0.01 0.02 0.02 0.03 0.04 0.04 0.05 0.05 0.05 0.05
MSLP
1010.05 1010.66 1011.22 1011.68 1012.07 1012.40 1012.71 1013.04 1013.41 1013.83 1014.29 1014.77 1015.24 1015.66 1016.02 1016.31 1016.52 1016.69 1016.83 1016.96 1017.10 1017.26 1017.43 1017.61 1017.78 1017.94 1018.09 1018.22 1018.36 1018.50 1018.67 1018.86 1019.07 1019.27 1019.44 1019.57 1019.62 1019.60 1019.51 1019.38 1019.24 1019.13 1019.10
1009.97 1010.65 1011.26 1011.75 1012.14 1012.45 1012.72 1013.00 1013.32 1013.69 1014.12 1014.57 1015.02 1015.43 1015.78 1016.06 1016.27 1016.43 1016.58 1016.74 1016.92 1017.13 1017.37 1017.61 1017.83 1018.03 1018.18 1018.31 1018.41 1018.52 1018.65 1018.81 1019.00 1019.20 1019.39 1019.54 1019.62 1019.61 1019.51 1019.35 1019.16 1018.98 1018.86
1009.78 1010.53 1011.20 1011.75 1012.16 1012.47 1012.72 1012.95 1013.22 1013.54 1013.92 1014.34 1014.76 1015.15 1015.48 1015.74 1015.94 1016.11 1016.28 1016.46 1016.69 1016.96 1017.25 1017.55 1017.82 1018.04 1018.20 1018.31 1018.38 1018.44 1018.53 1018.66 1018.83 1019.04 1019.26 1019.45 1019.58 1019.61 1019.55 1019.39 1019.18 1018.96 1018.78
1009.50 1010.31 1011.06 1011.67 1012.14 1012.47 1012.71 1012.93 1013.15 1013.43 1013.76 1014.13 1014.51 1014.87 1015.18 1015.43 1015.63 1015.80 1015.98 1016.20 1016.46 1016.78 1017.12 1017.46 1017.76 1018.00 1018.16 1018.25 1018.29 1018.31 1018.35 1018.45 1018.61 1018.83 1019.08 1019.33 1019.52 1019.63 1019.62 1019.51 1019.32 1019.09 1018.86
1009.17 1010.04 1010.87 1011.56 1012.09 1012.46 1012.73 1012.93 1013.14 1013.38 1013.67 1014.00 1014.34 1014.67 1014.95 1015.19 1015.38 1015.56 1015.76 1015.99 1016.28 1016.62 1016.99 1017.35 1017.68 1017.93 1018.08 1018.15 1018.16 1018.15 1018.16 1018.23 1018.39 1018.62 1018.91 1019.21 1019.47 1019.66 1019.73 1019.68 1019.53 1019.31 1019.07
1008.84 1009.76 1010.65 1011.41 1012.02 1012.45 1012.76 1012.98 1013.19 1013.41 1013.67 1013.96 1014.27 1014.57 1014.83 1015.05 1015.24 1015.42 1015.61 1015.85 1016.14 1016.49 1016.87 1017.24 1017.57 1017.82 1017.97 1018.04 1018.04 1018.01 1018.00 1018.07 1018.22 1018.47 1018.78 1019.13 1019.46 1019.71 1019.86 1019.88 1019.78 1019.60 1019.36
1008.54 1009.48 1010.42 1011.26 1011.93 1012.44 1012.80 1013.06 1013.27 1013.49 1013.73 1014.00 1014.28 1014.55 1014.80 1015.01 1015.19 1015.36 1015.54 1015.77 1016.06 1016.39 1016.76 1017.12 1017.45 1017.69 1017.85 1017.92 1017.93 1017.91 1017.91 1017.98 1018.14 1018.40 1018.74 1019.11 1019.48 1019.78 1019.99 1020.07 1020.03 1019.89 1019.70
1008.30 1009.24 1010.20 1011.08 1011.82 1012.39 1012.81 1013.12 1013.36 1013.59 1013.83 1014.08 1014.34 1014.60 1014.82 1015.02 1015.19 1015.34 1015.52 1015.72 1015.99 1016.30 1016.64 1016.98 1017.30 1017.55 1017.72 1017.82 1017.86 1017.87 1017.91 1018.00 1018.18 1018.44 1018.79 1019.17 1019.55 1019.88 1020.12 1020.24 1020.26 1020.18 1020.04
1008.10 1009.01 1009.97 1010.88 1011.67 1012.30 1012.78 1013.14 1013.43 1013.67 1013.92 1014.16 1014.41 1014.65 1014.86 1015.04 1015.19 1015.34 1015.49 1015.68 1015.91 1016.19 1016.50 1016.83 1017.13 1017.40 1017.60 1017.74 1017.84 1017.91 1018.00 1018.14 1018.34 1018.62 1018.95 1019.33 1019.69 1020.01 1020.26 1020.41 1020.46 1020.44 1020.37
1007.95 1008.80 1009.74 1010.66 1011.48 1012.16 1012.70 1013.11 1013.44 1013.72 1013.97 1014.22 1014.46 1014.68 1014.88 1015.04 1015.18 1015.31 1015.45 1015.61 1015.82 1016.07 1016.36 1016.67 1016.98 1017.27 1017.52 1017.72 1017.90 1018.05 1018.21 1018.40 1018.64 1018.92 1019.25 1019.59 1019.91 1020.20 1020.43 1020.58 1020.66 1020.69 1020.69
1007.81 1008.61 1009.51 1010.42 1011.25 1011.97 1012.56 1013.02 1013.40 1013.71 1013.98 1014.23 1014.46 1014.67 1014.86 1015.01 1015.15 1015.27 1015.40 1015.56 1015.75 1015.99 1016.27 1016.58 1016.90 1017.22 1017.52 1017.80 1018.06 1018.30 1018.54 1018.80 1019.07 1019.37 1019.67 1019.96 1020.24 1020.47 1020.66 1020.79 1020.88 1020.94 1021.01
1007.71 1008.44 1009.29 1010.16 1011.00 1011.75 1012.38 1012.90 1013.32 1013.67 1013.96 1014.22 1014.45 1014.65 1014.83 1014.98 1015.12 1015.25 1015.39 1015.55 1015.75 1015.99 1016.28 1016.60 1016.94 1017.30 1017.66 1018.01 1018.34 1018.67 1018.99 1019.31 1019.62 1019.92 1020.20 1020.45 1020.66 1020.83 1020.96 1021.05 1021.13 1021.22 1021.32
1007.64 1008.30 1009.09 1009.93 1010.76 1011.53 1012.20 1012.77 1013.24 1013.62 1013.94 1014.21 1014.44 1014.64 1014.82 1014.99 1015.14 1015.30 1015.47 1015.66 1015.89 1016.15 1016.46 1016.80 1017.16 1017.55 1017.95 1018.36 1018.76 1019.16 1019.54 1019.91 1020.24 1020.54 1020.80 1021.00 1021.15 1021.26 1021.32 1021.37 1021.43 1021.51 1021.65
1007.63 1008.22 1008.95 1009.75 1010.56 1011.34 1012.05 1012.67 1013.18 1013.61 1013.96 1014.24 1014.48 1014.69 1014.89 1015.07 1015.26 1015.47 1015.69 1015.93 1016.20 1016.51 1016.84 1017.20 1017.59 1018.00 1018.42 1018.86 1019.30 1019.74 1020.16 1020.55 1020.90 1021.20 1021.43 1021.59 1021.69 1021.73 1021.74 1021.74 1021.76 1021.83 1021.97
1007.71 1008.22 1008.88 1009.63 1010.43 1011.21 1011.95 1012.61 1013.17 1013.64 1014.02 1014.33 1014.60 1014.83 1015.04 1015.27 1015.51 1015.77 1016.06 1016.37 1016.71 1017.06 1017.43 1017.81 1018.20 1018.61 1019.04 1019.47 1019.91 1020.36 1020.79 1021.18 1021.53 1021.82 1022.03 1022.16 1022.21 1022.21 1022.17 1022.13 1022.12 1022.16 1022.28
1007.87 1008.30 1008.89 1009.59 1010.36 1011.15 1011.91 1012.61 1013.22 1013.73 1014.15 1014.49 1014.78 1015.04 1015.30 1015.57 1015.87 1016.21 1016.57 1016.96 1017.37 1017.77 1018.17 1018.57 1018.96 1019.34 1019.74 1020.14 1020.55 1020.97 1021.37 1021.75 1022.09 1022.36 1022.55 1022.66 1022.68 1022.65 1022.58 1022.51 1022.47 1022.49 1022.58
1008.12 1008.47 1008.99 1009.63 1010.37 1011.16 1011.94 1012.67 1013.32 1013.87 1014.32 1014.70 1015.03 1015.32 1015.63 1015.96 1016.32 1016.73 1017.18 1017.65 1018.12 1018.57 1019.00 1019.40 1019.77 1020.11 1020.45 1020.80 1021.15 1021.51 1021.87 1022.22 1022.53 1022.78 1022.96 1023.06 1023.08 1023.03 1022.95 1022.86 1022.80 1022.79 1022.85
1008.46 1008.73 1009.17 1009.76 1010.46 1011.23 1012.02 1012.77 1013.45 1014.04 1014.53 1014.94 1015.30 1015.64 1015.99 1016.38 1016.81 1017.29 1017.81 1018.34 1018.87 1019.36 1019.81 1020.20 1020.54 1020.84 1021.11 1021.38 1021.66 1021.95 1022.26 1022.56 1022.84 1023.08 1023.25 1023.35 1023.38 1023.34 1023.26 1023.17 1023.10 1023.07 1023.11
1008.86 1009.06 1009.43 1009.96 1010.63 1011.38 1012.16 1012.92 1013.62 1014.24 1014.76 1015.20 1015.59 1015.97 1016.36 1016.79 1017.28 1017.82 1018.39 1018.98 1019.54 1020.07 1020.52 1020.90 1021.20 1021.45 1021.66 1021.86 1022.06 1022.29 1022.53 1022.79 1023.04 1023.26 1023.44 1023.55 1023.60 1023.58 1023.52 1023.44 1023.37 1023.33 1023.35
1009.31 1009.45 1009.76 1010.25 1010.87 1011.60 1012.36 1013.12 1013.83 1014.46 1015.00 1015.46 1015.88 1016.28 1016.71 1017.17 1017.69 1018.27 1018.88 1019.50 1020.09 1020.63 1021.08 1021.45 1021.72 1021.92 1022.08 1022.22 1022.36 1022.53 1022.73 1022.94 1023.17 1023.39 1023.57 1023.70 1023.76 1023.77 1023.74 1023.68 1023.61 1023.57 1023.58
1009.80 1009.90 1010.17 1010.61 1011.19 1011.89 1012.63 1013.37 1014.07 1014.70 1015.25 1015.73 1016.16 1016.58 1017.02 1017.51 1018.05 1018.65 1019.27 1019.90 1020.50 1021.04 1021.49 1021.84 1022.09 1022.27 1022.39 1022.49 1022.59 1022.72 1022.88 1023.07 1023.28 1023.49 1023.67 1023.81 1023.90 1023.94 1023.92 1023.88 1023.83 1023.80 1023.79
1010.31 1010.39 1010.63 1011.04 1011.59 1012.24 1012.95 1013.67 1014.35 1014.96 1015.51 1015.99 1016.43 1016.86 1017.32 1017.81 1018.35 1018.95 1019.57 1020.20 1020.79 1021.32 1021.76 1022.10 1022.35 1022.51 1022.62 1022.71 1022.79 1022.90 1023.04 1023.21 1023.40 1023.60 1023.78 1023.92 1024.02 1024.07 1024.08 1024.05 1024.02 1023.98 1023.97
1010.83 1010.90 1011.13 1011.51 1012.02 1012.63 1013.30 1013.98 1014.63 1015.23 1015.77 1016.25 1016.69 1017.13 1017.58 1018.08 1018.62 1019.20 1019.81 1020.42 1020.99 1021.51 1021.95 1022.29 1022.54 1022.71 1022.82 1022.91 1022.99 1023.09 1023.22 1023.38 1023.55 1023.73 1023.90 1024.03 1024.13 1024.18 1024.20 1024.18 1024.15 1024.12 1024.11
1011.31 1011.40 1011.62 1011.97 1012.45 1013.02 1013.64 1014.27 1014.89 1015.46 1015.99 1016.47 1016.92 1017.36 1017.82 1018.32 1018.85 1019.42 1020.01 1020.60 1021.16 1021.66 1022.09 1022.43 1022.69 1022.88 1023.02 1023.12 1023.22 1023.32 1023.44 1023.58 1023.73 1023.88 1024.02 1024.13 1024.21 1024.25 1024.26 1024.25 1024.22 1024.20 1024.20
1011.73 1011.83 1012.04 1012.37 1012.81 1013.32 1013.89 1014.47 1015.05 1015.60 1016.12 1016.61 1017.07 1017.54 1018.01 1018.51 1019.05 1019.61 1020.19 1020.76 1021.30 1021.80 1022.22 1022.57 1022.85 1023.06 1023.22 1023.34 1023.45 1023.55 1023.66 1023.78 1023.90 1024.01 1024.11 1024.19 1024.24 1024.26 1024.26 1024.25 1024.23 1024.22 1024.22
1012.03 1012.13 1012.33 1012.63 1013.02 1013.47 1013.98 1014.52 1015.06 1015.60 1016.11 1016.61 1017.11 1017.60 1018.11 1018.64 1019.19 1019.76 1020.33 1020.90 1021.43 1021.92 1022.35 1022.70 1022.99 1023.22 1023.40 1023.54 1023.66 1023.76 1023.85 1023.94 1024.03 1024.10 1024.16 1024.20 1024.22 1024.22 1024.21 1024.20 1024.20 1024.20 1024.22
Thickness
5833 5829 5823 5817 5809 5802 5796 5790 5785 5781 5776 5771 5766 5762 5760 5760 5759 5758 5756 5754 5753 5753 5752 5752 5751 5750 5750 5750 5749 5747 5746 5745 5746 5743 5740 5743 5746 5747 5747 5746 5746 5745 5743
5830 5826 5820 5815 5809 5802 5796 5791 5787 5783 5778 5774 5770 5766 5763 5761 5761 5760 5758 5755 5754 5753 5753 5751 5751 5751 5749 5749 5748 5747 5744 5745 5747 5741 5735 5732 5735 5743 5749 5747 5746 5746 5744
5831 5824 5819 5815 5810 5803 5798 5794 5789 5784 5780 5776 5772 5768 5764 5761 5759 5758 5757 5756 5755 5753 5753 5752 5751 5751 5750 5748 5747 5747 5744 5742 5745 5746 5739 5729 5726 5734 5743 5746 5747 5746 5745
5837 5828 5822 5816 5811 5806 5801 5796 5790 5786 5781 5777 5771 5766 5761 5757 5757 5757 5757 5756 5755 5754 5753 5753 5752 5752 5751 5749 5748 5749 5747 5744 5742 5745 5746 5743 5739 5731 5730 5738 5743 5745 5745
5842 5832 5826 5819 5815 5810 5803 5797 5791 5785 5781 5777 5773 5767 5763 5761 5760 5758 5756 5754 5754 5754 5753 5753 5752 5751 5750 5750 5749 5749 5747 5746 5743 5742 5742 5742 5741 5739 5731 5728 5734 5740 5743
5845 5836 5830 5822 5815 5810 5804 5798 5790 5785 5781 5777 5773 5769 5765 5762 5759 5756 5754 5753 5753 5753 5753 5753 5752 5751 5750 5749 5749 5748 5747 5745 5745 5744 5743 5740 5737 5735 5734 5730 5731 5732 5738
5844 5835 5826 5819 5814 5809 5804 5798 5790 5784 5781 5777 5774 5770 5767 5763 5760 5757 5755 5753 5753 5753 5754 5754 5753 5751 5750 5749 5748 5747 5745 5745 5743 5742 5742 5741 5741 5740 5737 5732 5730 5731 5736
5844 5835 5828 5821 5815 5810 5804 5798 5790 5785 5782 5778 5774 5771 5768 5765 5762 5760 5758 5756 5755 5755 5755 5754 5752 5751 5749 5749 5747 5746 5745 5744 5742 5742 5741 5740 5740 5741 5738 5735 5730 5725 5728
5843 5836 5829 5823 5817 5811 5805 5799 5792 5786 5782 5778 5775 5771 5768 5765 5763 5761 5759 5758 5757 5756 5755 5753 5751 5750 5748 5747 5746 5744 5743 5742 5740 5739 5739 5737 5738 5738 5738 5736 5733 5724 5717
5842 5837 5830 5825 5819 5813 5806 5800 5793 5787 5783 5779 5775 5772 5768 5766 5763 5761 5758 5756 5756 5755 5753 5751 5750 5748 5747 5745 5744 5742 5741 5739 5738 5737 5736 5735 5734 5734 5735 5733 5731 5728 5721
5842 5836 5829 5825 5819 5813 5806 5799 5792 5787 5782 5778 5774 5771 5768 5766 5763 5760 5757 5755 5753 5752 5750 5749 5747 5746 5745 5744 5742 5740 5738 5736 5734 5734 5732 5731 5731 5729 5729 5728 5726 5724 5721
5840 5836 5829 5821 5816 5811 5805 5798 5792 5787 5782 5778 5774 5769 5767 5764 5760 5758 5756 5754 5751 5749 5748 5746 5744 5743 5742 5741 5739 5736 5735 5733 5731 5730 5729 5727 5727 5725 5723 5721 5720 5719 5718
5836 5833 5826 5819 5812 5808 5804 5798 5792 5787 5782 5777 5772 5767 5763 5760 5757 5755 5753 5751 5748 5746 5745 5743 5741 5739 5738 5737 5735 5733 5732 5730 5727 5726 5724 5722 5721 5718 5717 5715 5714 5713 5712
5832 5826 5820 5816 5811 5806 5801 5796 5791 5788 5782 5775 5769 5764 5761 5758 5755 5752 5749 5747 5745 5743 5741 5739 5737 5736 5734 5733 5731 5729 5727 5725 5723 5721 5719 5717 5714 5712 5711 5709 5707 5706 5704
5826 5822 5817 5812 5807 5803 5798 5794 5789 5785 5780 5773 5766 5761 5758 5755 5752 5748 5745 5742 5740 5738 5736 5734 5733 5731 5729 5727 5725 5724 5722 5719 5717 5715 5713 5710 5707 5705 5703 5701 5698 5698 5696
5821 5818 5814 5808 5803 5799 5795 5791 5786 5781 5776 5769 5763 5759 5755 5750 5747 5743 5740 5737 5734 5732 5730 5728 5726 5724 5721 5719 5718 5717 5715 5712 5710 5707 5705 5703 5699 5697 5694 5691 5689 5688 5685
5817 5814 5809 5805 5798 5795 5792 5787 5782 5778 5771 5765 5760 5755 5750 5745 5741 5739 5734 5731 5728 5726 5723 5721 5718 5715 5712 5711 5710 5709 5707 5704 5702 5699 5696 5694 5691 5688 5685 5682 5680 5677 5675
5812 5808 5806 5802 5798 5794 5790 5785 5779 5773 5766 5760 5755 5750 5745 5740 5736 5732 5728 5724 5722 5719 5716 5713 5711 5708 5704 5703 5702 5701 5698 5695 5692 5689 5686 5683 5681 5679 5676 5673 5669 5666 5662
5808 5804 5802 5798 5795 5790 5786 5779 5773 5767 5760 5754 5749 5745 5740 5735 5730 5726 5721 5718 5715 5711 5708 5705 5702 5699 5696 5694 5693 5693 5690 5686 5682 5678 5675 5673 5670 5667 5666 5663 5659 5656 5651
5802 5798 5795 5791 5785 5783 5780 5772 5764 5758 5752 5748 5743 5739 5735 5729 5723 5719 5715 5711 5707 5703 5700 5696 5693 5691 5687 5685 5684 5684 5682 5678 5673 5669 5665 5662 5659 5657 5655 5652 5649 5645 5642
5793 5791 5786 5780 5776 5774 5770 5762 5756 5749 5745 5742 5737 5732 5727 5722 5717 5712 5708 5704 5700 5696 5692 5688 5684 5681 5678 5675 5674 5673 5672 5669 5665 5660 5655 5652 5649 5647 5644 5641 5638 5634 5632
5782 5780 5774 5769 5767 5764 5759 5752 5746 5743 5739 5734 5729 5724 5719 5716 5710 5704 5700 5697 5693 5688 5684 5680 5676 5672 5668 5665 5663 5661 5660 5658 5654 5650 5645 5641 5639 5637 5634 5631 5627 5625 5622
5770 5768 5764 5759 5756 5753 5749 5742 5738 5736 5730 5724 5719 5714 5710 5705 5700 5696 5692 5688 5685 5681 5677 5673 5669 5664 5659 5654 5652 5651 5649 5646 5643 5639 5635 5632 5629 5627 5624 5621 5618 5615 5612
5759 5757 5753 5748 5744 5742 5739 5734 5731 5727 5721 5714 5709 5705 5699 5694 5689 5685 5682 5677 5674 5672 5669 5665 5660 5655 5650 5646 5643 5641 5638 5635 5632 5629 5626 5623 5620 5616 5613 5611 5608 5604 5601
5749 5746 5741 5736 5733 5731 5727 5725 5721 5717 5710 5705 5700 5695 5690 5682 5675 5669 5664 5662 5656 5656 5655 5653 5649 5645 5639 5633 5632 5632 5629 5626 5623 5620 5618 5614 5611 5608 5604 5600 5596 5593 5589
5736 5734 5730 5726 5723 5720 5716 5714 5711 5707 5701 5696 5691 5687 5681 5674 5667 5660 5652 5646 5644 5642 5640 5638 5636 5631 5627 5624 5623 5620 5618 5616 5613 5611 5608 5604 5601 5597 5593 5588 5584 5580 5576